| time (UTC) | temp F | wind direction | speed MPH | gust MPH | rain 1hr in | rain 24hr in | rain mn in | humidity % | barometer mb |
| 20260904131529 | 81 | 274 | 0.0 | 0.0 | 0.00 | 0.00 | 0.00 | 75 | 1014.3 |
| 20260904130029 | 80 | 200 | 0.0 | 0.0 | 0.00 | 0.00 | 0.00 | 76 | 1014.4 |
| 20260904124527 | 80 | 200 | 0.0 | 0.0 | 0.00 | 0.00 | 0.00 | 78 | 1014.4 |
| 20260904123026 | 79 | 248 | 0.0 | 0.0 | 0.00 | 0.00 | 0.00 | 78 | 1014.1 |
| 20260904121525 | 78 | 248 | 0.0 | 0.0 | 0.00 | 0.00 | 0.00 | 79 | 1014.0 |
| 20260904120023 | 78 | 248 | 0.0 | 0.0 | 0.00 | 0.00 | 0.00 | 78 | 1014.0 |
| 20260904114535 | 79 | 248 | 0.0 | 0.0 | 0.00 | 0.00 | 0.00 | 77 | 1013.9 |
| 20260904113019 | 79 | 248 | 0.0 | 0.0 | 0.00 | 0.00 | 0.00 | 76 | 1013.7 |
| 20260904111515 | 80 | 248 | 0.0 | 0.0 | 0.00 | 0.00 | 0.00 | 75 | 1013.5 |
| 20260904110022 | 80 | 248 | 0.0 | 1.0 | 0.00 | 0.00 | 0.00 | 74 | 1013.4 |
| 20260904104513 | 80 | 281 | 0.0 | 0.0 | 0.00 | 0.00 | 0.00 | 74 | 1013.3 |
| 20260904103011 | 80 | 281 | 0.0 | 0.0 | 0.00 | 0.00 | 0.00 | 73 | 1013.1 |
| 20260904101516 | 80 | 281 | 0.0 | 0.0 | 0.00 | 0.00 | 0.00 | 73 | 1013.0 |
| 20260904100008 | 80 | 208 | 0.0 | 0.0 | 0.00 | 0.00 | 0.00 | 73 | 1012.9 |
| 20260904094506 | 81 | 208 | 0.0 | 0.0 | 0.00 | 0.00 | 0.00 | 73 | 1013.0 |
| 20260904093004 | 81 | 208 | 0.0 | 0.0 | 0.00 | 0.00 | 0.00 | 72 | 1012.9 |
| 20260904091502 | 82 | 208 | 0.0 | 0.0 | 0.00 | 0.00 | 0.00 | 70 | 1012.8 |
| 20260904090058 | 82 | 208 | 0.0 | 0.0 | 0.00 | 0.00 | 0.00 | 70 | 1012.7 |
| 20260904084559 | 82 | 208 | 0.0 | 0.0 | 0.00 | 0.00 | 0.00 | 70 | 1012.6 |
| 20260904083100 | 82 | 208 | 0.0 | 0.0 | 0.00 | 0.00 | 0.00 | 70 | 1012.6 |
| 20260904081556 | 82 | 208 | 0.0 | 0.0 | 0.00 | 0.00 | 0.00 | 70 | 1012.6 |
| 20260904080054 | 83 | 208 | 0.0 | 0.0 | 0.00 | 0.00 | 0.00 | 70 | 1012.5 |
| 20260904074615 | 83 | 208 | 0.0 | 0.0 | 0.00 | 0.00 | 0.00 | 69 | 1012.5 |
| 20260904073051 | 83 | 208 | 0.0 | 0.0 | 0.00 | 0.00 | 0.00 | 69 | 1012.5 |
| 20260904071551 | 83 | 208 | 0.0 | 0.0 | 0.00 | 0.00 | 0.00 | 68 | 1012.5 |
| 20260904070048 | 84 | 208 | 0.0 | 0.0 | 0.00 | 0.00 | 0.00 | 68 | 1012.5 |
| 20260904064547 | 84 | 208 | 0.0 | 0.0 | 0.00 | 0.00 | 0.00 | 68 | 1012.5 |
| 20260904063103 | 84 | 208 | 0.0 | 0.0 | 0.00 | 0.00 | 0.00 | 68 | 1012.6 |
| 20260904061544 | 84 | 208 | 0.0 | 1.0 | 0.00 | 0.00 | 0.00 | 67 | 1012.5 |
| 20260904060105 | 85 | 205 | 0.0 | 0.0 | 0.00 | 0.00 | 0.00 | 67 | 1012.6 |
| 20260904054542 | 85 | 192 | 0.0 | 0.0 | 0.00 | 0.00 | 0.00 | 67 | 1012.5 |
| 20260904053041 | 85 | 192 | 0.0 | 0.0 | 0.00 | 0.00 | 0.00 | 67 | 1012.6 |
| 20260904051539 | 85 | 192 | 0.0 | 0.0 | 0.00 | 0.00 | 0.00 | 67 | 1012.6 |
| 20260904050037 | 86 | 192 | 0.0 | 1.0 | 0.00 | 0.00 | 0.00 | 67 | 1012.5 |
| 20260904044546 | 86 | 221 | 0.0 | 0.0 | 0.00 | 0.00 | 0.00 | 66 | 1012.6 |
| 20260904043038 | 87 | 179 | 0.0 | 0.0 | 0.00 | 0.00 | 0.00 | 65 | 1012.6 |
| 20260904041535 | 87 | 271 | 0.0 | 0.0 | 0.00 | 0.00 | 0.00 | 64 | 1012.6 |
| 20260904040036 | 87 | 149 | 0.0 | 0.0 | 0.00 | 0.00 | 0.00 | 64 | 1012.6 |
| 20260904034536 | 87 | 152 | 0.0 | 1.0 | 0.00 | 0.00 | 0.00 | 63 | 1012.7 |
| 20260904033038 | 88 | 213 | 0.0 | 1.0 | 0.00 | 0.00 | 0.00 | 63 | 1012.6 |
| 20260904031533 | 88 | 150 | 0.0 | 2.0 | 0.00 | 0.00 | 0.00 | 62 | 1012.5 |
| 20260904030033 | 88 | 252 | 0.0 | 1.0 | 0.00 | 0.00 | 0.00 | 62 | 1012.6 |
| 20260904024533 | 89 | 178 | 0.0 | 1.0 | 0.00 | 0.00 | 0.00 | 61 | 1012.4 |
| 20260904023032 | 89 | 140 | 0.0 | 3.0 | 0.00 | 0.00 | 0.00 | 59 | 1012.4 |
| 20260904021533 | 89 | 153 | 0.0 | 1.0 | 0.00 | 0.00 | 0.00 | 58 | 1012.2 |
| 20260904020031 | 89 | 128 | 0.0 | 0.0 | 0.00 | 0.00 | 0.00 | 58 | 1012.0 |
| 20260904014531 | 89 | 255 | 0.0 | 0.0 | 0.00 | 0.00 | 0.00 | 57 | 1012.0 |
| 20260904013034 | 90 | 255 | 0.0 | 1.0 | 0.00 | 0.00 | 0.00 | 56 | 1011.9 |
| 20260904011538 | 91 | 255 | 0.0 | 0.0 | 0.00 | 0.00 | 0.00 | 54 | 1011.7 |
| 20260904010043 | 92 | 255 | 0.0 | 0.0 | 0.00 | 0.00 | 0.00 | 52 | 1011.6 |
| 20260904004531 | 93 | 255 | 0.0 | 0.0 | 0.00 | 0.00 | 0.00 | 50 | 1011.4 |
| 20260904003032 | 94 | 255 | 0.0 | 0.0 | 0.00 | 0.00 | 0.00 | 49 | 1011.4 |
| 20260904001528 | 95 | 255 | 0.0 | 1.0 | 0.00 | 0.00 | 0.00 | 48 | 1011.3 |
| 20260904000027 | 95 | 255 | 0.0 | 0.0 | 0.00 | 0.00 | 0.00 | 47 | 1011.3 |
| 20260903234534 | 96 | 146 | 0.0 | 2.0 | 0.00 | 0.00 | 0.00 | 46 | 1011.2 |
| 20260903233026 | 96 | 282 | 0.0 | 4.0 | 0.00 | 0.00 | 0.00 | 45 | 1011.2 |
| 20260903231526 | 96 | 173 | 0.0 | 3.0 | 0.00 | 0.00 | 0.00 | 43 | 1011.2 |
| 20260903230026 | 97 | 176 | 0.0 | 0.0 | 0.00 | 0.00 | 0.00 | 44 | 1011.2 |
| 20260903224527 | 97 | 205 | 0.0 | 0.0 | 0.00 | 0.00 | 0.00 | 43 | 1011.2 |
| 20260903223034 | 98 | 186 | 0.0 | 3.0 | 0.00 | 0.00 | 0.00 | 43 | 1011.3 |
| 20260903221524 | 98 | 195 | 0.0 | 0.0 | 0.00 | 0.00 | 0.00 | 42 | 1011.2 |
| 20260903220035 | 98 | 206 | 0.0 | 0.0 | 0.00 | 0.00 | 0.00 | 44 | 1011.2 |
| 20260903214522 | 97 | 225 | 0.0 | 4.0 | 0.00 | 0.00 | 0.00 | 44 | 1011.2 |
| 20260903213032 | 97 | 140 | 0.0 | 2.0 | 0.00 | 0.00 | 0.00 | 44 | 1011.4 |
| 20260903211551 | 98 | 131 | 0.0 | 5.0 | 0.00 | 0.00 | 0.00 | 41 | 1011.5 |
| 20260903210017 | 98 | 53 | 0.0 | 2.0 | 0.00 | 0.00 | 0.00 | 41 | 1011.6 |
| 20260903204515 | 98 | 141 | 0.0 | 5.0 | 0.00 | 0.00 | 0.00 | 43 | 1011.7 |
| 20260903203014 | 98 | 229 | 0.0 | 2.0 | 0.00 | 0.00 | 0.00 | 43 | 1011.9 |
| 20260903201511 | 98 | 235 | 0.0 | 3.0 | 0.00 | 0.00 | 0.00 | 44 | 1012.1 |
| 20260903200007 | 97 | 199 | 0.0 | 2.0 | 0.00 | 0.00 | 0.00 | 45 | 1012.1 |
| 20260903194505 | 96 | 248 | 0.0 | 0.0 | 0.00 | 0.00 | 0.00 | 45 | 1012.3 |
| 20260903193002 | 97 | 229 | 0.0 | 3.0 | 0.00 | 0.00 | 0.00 | 45 | 1012.6 |
| 20260903191600 | 96 | 273 | 1.0 | 8.0 | 0.00 | 0.00 | 0.00 | 45 | 1012.9 |
| 20260903190059 | 96 | 258 | 0.0 | 0.0 | 0.00 | 0.00 | 0.00 | 49 | 1012.9 |
| 20260903184602 | 96 | 327 | 0.0 | 12.0 | 0.00 | 0.00 | 0.00 | 47 | 1013.1 |
| 20260903183051 | 95 | 198 | 0.0 | 4.0 | 0.00 | 0.00 | 0.00 | 48 | 1013.2 |
| 20260903181547 | 95 | 227 | 0.0 | 2.0 | 0.00 | 0.00 | 0.00 | 48 | 1013.5 |
| 20260903180044 | 94 | 202 | 1.0 | 9.0 | 0.00 | 0.00 | 0.00 | 48 | 1013.7 |
| 20260903174600 | 94 | 244 | 0.0 | 5.0 | 0.00 | 0.00 | 0.00 | 50 | 1013.9 |
| 20260903173044 | 94 | 289 | 0.0 | 13.0 | 0.00 | 0.00 | 0.00 | 50 | 1014.0 |
| 20260903171540 | 94 | 294 | 0.0 | 13.0 | 0.00 | 0.00 | 0.00 | 51 | 1014.0 |
| 20260903170100 | 94 | 234 | 0.0 | 9.0 | 0.00 | 0.00 | 0.00 | 52 | 1014.2 |
| 20260903164541 | 93 | 196 | 0.0 | 1.0 | 0.00 | 0.00 | 0.00 | 53 | 1014.3 |
| 20260903163032 | 93 | 152 | 0.0 | 1.0 | 0.00 | 0.00 | 0.00 | 53 | 1014.5 |
| 20260903161528 | 92 | 335 | 0.0 | 7.0 | 0.00 | 0.00 | 0.00 | 55 | 1014.4 |
| 20260903160030 | 91 | 261 | 1.0 | 8.0 | 0.00 | 0.00 | 0.00 | 55 | 1014.5 |
| 20260903154523 | 91 | 245 | 0.0 | 5.0 | 0.00 | 0.00 | 0.00 | 59 | 1014.5 |
| 20260903153020 | 90 | 168 | 0.0 | 3.0 | 0.00 | 0.00 | 0.00 | 61 | 1014.5 |
| 20260903151518 | 89 | 295 | 0.0 | 5.0 | 0.00 | 0.00 | 0.00 | 62 | 1014.6 |
| 20260903150023 | 88 | 199 | 0.0 | 6.0 | 0.00 | 0.00 | 0.00 | 63 | 1014.5 |
| 20260903144513 | 88 | 190 | 0.0 | 3.0 | 0.00 | 0.00 | 0.00 | 64 | 1014.5 |
| 20260903143011 | 87 | 202 | 0.0 | 7.0 | 0.00 | 0.00 | 0.00 | 65 | 1014.6 |
| 20260903141507 | 86 | 210 | 0.0 | 1.0 | 0.00 | 0.00 | 0.00 | 67 | 1014.6 |
| 20260903140003 | 85 | 240 | 0.0 | 3.0 | 0.00 | 0.00 | 0.00 | 69 | 1014.6 |
| 20260903134502 | 84 | 205 | 0.0 | 1.0 | 0.00 | 0.00 | 0.00 | 70 | 1014.5 |
| 20260903133003 | 83 | 269 | 0.0 | 0.0 | 0.00 | 0.00 | 0.00 | 71 | 1014.6 |